Volver al catálogo

STARLINK-5872

ActivoComunicacionesVLEO
NORAD 57232·PAYLOAD·🇺🇸 United States

Lanzado Jul 7, 2023 desde Vandenberg Space Force Base

Loading…

Próximos Pases (próximas 24 horas)

TLE

ActualizadoSource: CelesTrak SupGP

Época: Sep 15, 2026, 03:04 UTC

1 57232C 23094Q   26258.12826389 -.00029273  00000+0 -10603-2 0  2583
2 57232  43.0040  40.9621 0001547 255.2970 206.4832 15.27593552    11

Sigue STARLINK-5872 en tiempo real con AllMySat

Download on the App Store